Location: Unspecified
(51.3304°N, 0.5782°E)
Time: 10:17:43
(UTC+00:00)

ISS - Visible Passes

Search period start: 17 November 2025 00:00
Search period end: 27 November 2025 00:00
Orbit: 415 x 420 km, 51.6° (Epoch: 16 November)

Date Brightness Start Highest point End Pass type
(mag) Time Alt. Az. Time Alt. Az. Time Alt. Az.
17 Nov -2.4 17:12:13 10° SSW 17:15:07 28° SSE 17:17:12 15° E visible
17 Nov -1.9 18:48:16 10° WSW 18:50:07 30° WSW 18:50:07 30° WSW visible
18 Nov -3.8 18:00:08 10° WSW 18:03:27 66° SSE 18:03:52 58° ESE visible
19 Nov -3.3 17:12:03 10° SW 17:15:18 51° SSE 17:17:34 18° E visible
19 Nov -1.8 18:48:38 10° W 18:50:28 30° W 18:50:28 30° W visible
20 Nov -3.9 18:00:23 10° W 18:03:44 89° NW 18:04:07 68° E visible
21 Nov -3.8 17:12:06 10° WSW 17:15:27 80° SSE 17:17:44 19° E visible
21 Nov -1.7 18:48:53 10° W 18:50:38 28° W 18:50:38 28° W visible
22 Nov -3.9 18:00:34 10° W 18:03:56 83° N 18:04:13 71° ENE visible
23 Nov -3.8 17:12:12 10° W 17:15:33 84° N 17:17:48 20° E visible
23 Nov -1.7 18:48:59 10° W 18:50:42 27° W 18:50:42 27° W visible
24 Nov -3.9 18:00:36 10° W 18:03:58 84° SSW 18:04:17 71° ESE visible
25 Nov -3.8 17:12:11 10° W 17:15:32 87° N 17:17:53 19° E visible
25 Nov -1.6 18:48:59 10° W 18:50:47 26° W 18:50:47 26° W visible
26 Nov -3.3 18:00:30 10° W 18:03:48 56° SSW 18:04:25 46° SSE visible
